Vorticity
nan nan nan nan nan nan nan nan nan nan nan nan nan nan nan nan nan nan nan nan nan nan nan nan nan nan nan nan nan nan nan nan nan nan nan nan nan nan nan nan nan nan nan nan nan nan nan nan nan nan nan nan nan nan nan nan nan nan nan nan nan nan nan nan nan nan nan nan nan nan nan nan nan nan nan nan nan nan nan nan nan nan nan nan nan nan nan nan nan nan nan nan nan nan nan nan nan nan nan nan nan nan nan
nan -1 -2 -0 5 13 14 8 5 3 4 11 15 13 10 8 7 7 5 5 5 6 6 6 5 5 5 5 5 5 6 6 6 6 6 5 4 3 1 -1 -2 -2 -1 0 1 3 9 16 20 16 9 9 9 9 7 7 8 8 7 6 5 6 5 5 6 5 6 5 5 5 5 5 6 6 6 6 6 6 6 5 5 5 5 6 6 6 6 6 6 6 6 5 5 5 5 5 5 6 6 5 5 5 nan
nan -0 -1 1 6 13 13 8 5 3 6 11 13 12 9 7 6 5 3 3 3 4 6 5 5 5 5 5 5 5 5 6 6 6 5 4 3 2 -0 -1 -2 -1 -0 1 4 8 16 27 27 17 5 7 8 9 8 6 6 6 5 5 5 6 9 6 6 6 6 5 5 5 5 6 6 6 6 6 6 6 5 5 5 5 6 6 6 6 6 6 5 5 5 5 5 5 6 6 6 6 6 6 5 5 nan
nan 1 0 2 6 12 12 9 6 4 6 9 10 9 7 6 6 5 4 4 4 5 6 6 5 5 5 5 5 5 6 6 6 6 5 4 2 1 -0 -1 -1 -1 1 2 5 11 23 29 21 12 4 6 7 7 6 6 6 5 4 5 6 6 9 7 6 6 5 5 5 5 6 6 6 6 6 6 5 5 5 5 5 6 6 6 6 6 6 6 5 5 5 5 5 6 6 6 6 6 6 6 5 5 nan
nan 2 2 4 7 11 11 9 7 4 4 5 7 7 6 6 6 6 7 7 7 6 5 5 5 5 5 5 5 6 6 6 6 6 5 3 2 0 -1 -1 -1 0 2 3 6 12 17 13 11 8 6 7 7 6 6 6 6 5 5 6 7 7 7 6 6 5 5 5 5 5 6 6 6 6 6 6 5 5 5 5 6 6 6 6 6 6 6 5 5 5 5 5 5 6 6 6 6 7 6 6 5 5 nan
nan 3 3 4 7 9 10 11 8 5 3 3 5 5 5 6 5 6 8 8 8 7 5 5 5 4 5 5 5 6 6 6 6 6 4 3 1 0 -1 -1 0 1 3 4 6 10 17 15 9 6 6 7 7 8 8 9 7 5 5 6 8 9 7 6 6 5 5 5 6 6 6 6 6 6 6 5 5 5 5 5 6 6 6 6 6 6 5 5 5 4 5 5 5 6 5 6 6 7 6 6 6 5 nan
nan 4 4 4 4 5 9 12 11 7 3 1 4 5 7 6 5 5 8 8 8 7 4 4 4 4 4 5 5 5 6 6 6 5 4 3 1 0 -0 0 1 2 3 4 5 9 16 16 11 7 7 7 7 8 11 11 9 7 5 7 9 10 8 7 6 5 5 6 6 7 7 7 6 6 5 5 5 5 5 6 6 6 6 7 7 6 5 4 4 4 5 5 5 5 5 6 6 6 6 6 6 6 nan
nan 4 4 3 3 3 7 11 10 8 4 1 4 8 10 7 5 5 7 7 7 6 4 4 4 4 4 5 5 5 6 6 5 5 4 2 2 1 0 1 1 2 3 3 4 6 13 15 11 7 7 7 8 9 12 8 6 6 5 7 7 7 7 7 6 5 5 6 7 7 7 7 6 5 5 5 5 5 5 6 6 6 7 7 7 6 5 4 4 4 4 5 5 6 6 5 6 6 6 6 6 6 nan
nan 3 4 4 2 2 5 8 9 9 5 1 6 10 11 8 5 5 6 6 6 5 4 4 3 4 4 5 5 5 5 5 5 4 4 3 2 1 0 1 2 2 3 3 3 3 10 15 11 8 8 8 8 10 10 6 4 5 6 7 7 6 6 5 5 5 6 7 7 7 7 6 6 5 5 5 5 5 5 6 6 6 7 7 6 5 4 4 4 4 5 5 6 6 6 5 5 6 6 6 6 6 nan
nan 3 4 4 3 2 4 6 9 11 6 2 6 10 11 8 5 6 6 6 5 5 4 4 4 4 5 5 5 5 5 5 4 4 3 2 2 1 1 1 2 2 3 3 3 2 9 14 10 8 8 7 8 9 8 7 6 6 7 9 8 7 5 5 5 6 6 7 8 7 7 6 6 5 5 5 5 5 5 5 6 6 7 7 7 5 4 4 4 4 4 5 5 6 6 5 5 5 5 5 6 6 nan
nan 6 7 5 3 2 3 7 11 13 7 1 4 8 9 8 6 6 6 6 6 5 5 4 4 4 5 4 5 5 5 5 4 4 3 2 2 1 1 1 2 2 3 3 3 3 8 12 10 9 8 7 7 7 7 7 6 5 7 9 7 6 5 5 6 6 7 7 7 7 7 6 6 6 5 5 5 5 5 5 6 6 7 8 7 6 4 4 4 4 4 5 5 5 6 6 5 6 5 5 5 5 nan
nan 9 9 7 4 3 3 8 13 16 8 1 2 6 7 7 6 6 5 6 6 5 5 4 4 5 4 4 5 5 4 4 4 4 3 3 2 2 1 1 1 2 3 3 4 5 9 12 11 10 9 7 6 7 8 7 5 5 9 11 8 5 4 5 6 6 7 7 7 7 6 6 6 6 5 5 5 5 5 5 5 6 7 7 7 6 5 4 4 4 4 4 4 5 5 5 6 6 5 5 5 5 nan
nan 11 11 8 5 4 4 10 14 16 9 2 3 4 5 6 6 5 5 6 6 6 5 5 5 5 3 4 5 5 4 4 4 4 3 3 2 2 1 1 2 2 3 4 6 8 10 10 10 10 8 7 6 8 9 7 6 7 12 10 7 5 4 5 5 6 7 7 7 6 6 6 6 6 6 5 5 5 4 5 5 5 6 6 6 6 6 5 5 4 4 4 4 4 5 5 5 5 5 5 5 5 nan
nan 10 11 8 6 5 5 11 14 15 9 5 5 5 5 6 5 5 5 6 5 5 6 6 6 5 3 4 5 5 5 4 4 4 3 3 2 2 2 2 2 2 3 6 8 9 8 8 8 9 7 7 6 8 10 8 7 10 14 7 5 4 4 5 5 5 6 6 6 6 6 6 6 6 6 6 6 5 5 5 5 5 5 6 6 6 6 6 6 5 5 4 4 4 4 5 5 5 5 5 5 5 nan
nan 10 11 9 8 7 7 11 12 12 9 7 7 7 8 7 6 5 6 6 5 5 6 6 7 6 4 5 5 5 5 5 4 4 4 3 3 2 2 2 2 3 5 7 7 7 6 8 8 8 7 7 6 7 8 9 10 13 12 6 4 4 4 4 4 5 5 6 6 6 6 6 6 6 7 7 6 6 5 5 5 5 5 5 6 6 6 6 6 6 5 5 5 5 5 5 5 5 5 5 5 5 nan
nan 11 12 10 9 7 7 9 10 10 8 6 7 9 10 9 7 6 6 6 5 5 5 6 7 7 7 6 5 4 2 4 4 4 4 3 3 2 2 2 3 4 6 6 6 6 7 9 8 7 6 6 7 8 9 10 13 15 9 4 4 3 4 4 4 4 5 5 5 6 6 6 6 6 7 7 7 6 5 5 5 5 5 5 5 6 6 6 6 6 6 5 5 5 5 5 5 5 5 5 5 5 nan
nan 10 10 9 8 6 7 9 10 10 7 5 7 9 11 10 9 7 6 6 5 5 5 6 8 10 10 6 2 -2 -2 3 4 5 5 4 3 3 2 3 3 4 5 6 6 7 9 9 8 7 6 7 7 9 9 11 15 14 7 4 4 4 3 3 4 4 4 4 5 5 5 6 6 6 7 7 7 7 6 5 5 5 5 5 5 5 6 6 6 6 6 6 6 6 6 6 6 6 6 6 5 5 nan
nan 9 9 9 8 6 7 9 10 10 8 6 6 8 10 10 10 8 8 7 6 5 5 7 9 12 11 3 -2 -6 -1 3 4 6 7 6 5 4 3 3 4 4 5 6 6 7 10 9 8 7 6 7 8 10 10 12 15 12 6 4 4 3 3 3 3 4 4 4 4 5 5 5 6 6 6 7 7 7 6 6 5 5 5 5 5 5 6 6 6 6 6 6 6 6 6 6 6 6 6 6 6 6 nan
nan 8 9 9 9 9 9 10 10 9 8 7 6 7 8 9 9 8 10 9 8 7 6 7 9 11 8 -1 -6 -5 2 4 5 5 7 9 8 6 5 5 5 5 6 6 7 8 9 8 7 6 6 8 10 11 10 13 14 11 6 4 4 3 3 3 3 4 4 4 4 4 4 5 5 5 6 6 6 6 6 6 6 5 5 5 5 5 6 6 6 6 6 6 6 6 6 6 6 6 7 6 6 6 nan
nan 3 5 7 9 9 9 8 8 7 6 6 4 3 3 4 6 8 10 9 8 8 7 7 7 8 2 -5 -4 -1 3 5 5 5 6 8 8 7 6 6 6 6 7 8 9 10 9 8 7 7 6 9 11 10 10 14 14 10 6 4 4 3 3 3 3 4 3 4 4 4 4 4 4 5 5 5 6 6 6 6 6 5 5 5 5 5 5 6 6 6 6 6 6 6 6 6 6 6 6 6 6 6 nan
nan 1 2 3 4 4 4 4 4 3 4 3 -1 -2 -1 1 3 5 6 4 5 6 6 4 2 3 -0 -1 1 3 4 6 5 6 6 7 6 6 6 6 6 7 7 10 11 10 9 8 8 8 7 9 11 10 11 15 13 8 4 4 4 3 3 3 4 4 4 3 3 3 4 4 4 4 5 5 5 5 6 6 6 6 5 5 5 5 5 6 6 6 7 7 7 6 6 6 6 6 6 6 6 6 nan
nan 4 3 2 1 0 0 1 1 2 4 1 -4 -3 1 2 3 2 -0 -0 3 4 3 2 2 3 4 5 5 4 5 7 7 6 6 7 6 6 6 6 6 7 8 10 10 9 8 8 8 8 8 11 12 11 12 15 11 6 4 4 3 3 3 4 4 4 4 4 4 4 4 4 4 4 4 4 5 5 5 5 5 5 5 5 5 5 5 5 6 6 7 6 6 6 6 6 6 6 6 6 6 6 nan
nan 6 5 3 2 2 2 3 3 4 6 2 -3 0 4 4 4 3 -0 2 4 4 3 3 4 5 6 6 6 5 6 8 8 8 7 7 7 7 7 6 6 7 8 9 8 8 7 7 7 7 9 11 12 11 13 13 9 6 4 4 3 3 3 4 4 4 4 4 4 4 4 4 4 4 4 4 5 5 5 5 5 5 5 5 5 5 5 5 6 6 6 6 6 6 6 6 6 6 6 6 6 6 nan
nan 5 5 4 4 4 4 5 5 6 7 3 1 3 6 6 6 4 2 4 6 6 6 5 5 6 7 6 6 5 6 9 10 8 7 8 8 9 8 6 6 6 7 8 7 7 6 6 6 7 8 11 12 11 13 12 8 6 5 4 4 4 4 4 4 4 5 4 4 4 4 4 3 4 4 4 4 4 5 5 5 5 5 5 5 5 5 5 6 6 6 6 6 6 6 6 6 6 6 6 6 6 nan
nan 6 5 5 5 5 6 6 7 7 7 6 4 5 8 8 7 5 4 5 6 7 7 6 5 6 7 7 6 5 6 9 10 8 8 9 10 9 8 7 6 6 7 7 7 7 6 6 6 6 8 10 11 11 11 11 9 7 6 5 5 5 5 4 5 5 4 4 4 4 4 4 4 4 4 4 4 4 5 5 5 5 5 5 5 5 5 5 5 6 6 6 6 6 6 6 6 6 6 6 6 6 nan
nan 6 6 6 7 7 7 8 8 8 8 7 6 7 9 9 7 6 6 6 7 8 8 7 6 6 7 8 7 6 7 8 9 9 8 9 10 10 8 7 6 6 6 7 7 7 6 6 6 6 7 9 11 10 9 10 9 8 7 7 6 6 5 5 5 5 4 4 4 4 4 4 4 4 4 4 4 4 4 4 4 4 4 4 4 5 5 5 5 5 6 6 6 6 6 6 6 6 6 5 5 5 nan
nan 8 9 8 8 8 8 9 9 9 8 7 6 7 9 9 8 8 8 7 8 9 10 8 8 7 8 9 9 8 9 8 8 8 8 9 10 11 9 7 7 7 6 6 7 7 6 6 6 5 6 9 10 8 8 9 8 8 8 7 7 7 6 5 5 5 5 5 5 5 5 4 4 4 4 4 4 4 4 4 4 4 4 4 4 5 4 4 5 5 6 6 6 6 6 6 5 5 5 5 5 5 nan
nan 10 10 9 9 8 9 9 9 9 8 7 6 6 8 10 9 8 8 8 8 9 10 9 9 9 8 9 10 10 9 8 7 7 8 8 9 10 10 8 8 7 6 6 7 7 7 6 6 6 7 8 9 8 8 9 8 8 7 7 7 7 6 5 5 5 6 6 5 5 4 4 4 4 4 4 4 4 4 4 4 4 4 4 4 4 4 4 4 5 5 6 6 6 6 6 5 5 5 5 5 5 nan
nan 10 10 9 9 8 8 8 9 9 8 7 6 6 7 9 9 8 7 7 7 8 9 10 10 10 9 8 9 10 9 8 7 7 7 7 7 8 8 9 9 8 7 7 8 7 7 7 6 6 8 8 9 9 9 8 9 8 6 6 6 6 5 4 4 5 5 6 5 5 4 4 4 4 3 3 3 3 3 3 4 4 4 4 4 4 4 4 4 4 5 5 6 6 6 6 5 5 5 5 5 5 nan
nan 9 9 9 8 7 7 8 8 8 8 7 7 6 6 8 9 8 7 7 7 7 8 9 9 9 8 8 8 8 8 8 7 7 7 7 6 6 7 9 9 9 8 7 8 9 9 7 7 6 8 9 9 10 10 10 11 8 6 5 6 6 5 4 4 4 5 5 5 5 5 4 4 4 3 3 3 3 3 3 3 3 3 4 4 4 4 3 3 4 5 5 5 6 6 6 5 5 5 5 5 5 nan
nan 8 8 8 7 6 7 8 8 8 7 6 7 7 7 8 9 9 8 7 7 7 7 8 8 7 7 7 7 8 8 7 7 7 7 7 7 6 6 7 8 9 8 7 8 9 10 9 8 7 7 8 9 10 10 10 11 10 7 5 5 5 6 5 4 4 4 4 5 4 4 4 4 4 3 3 3 3 3 3 3 3 3 3 4 4 3 3 3 3 4 5 5 5 6 6 6 6 5 5 5 5 nan
nan 7 7 7 7 7 7 7 7 8 7 6 7 7 7 8 8 8 8 7 7 8 8 8 8 7 7 6 7 8 8 8 7 7 7 7 7 7 7 7 7 8 8 8 8 8 8 9 8 7 7 7 7 9 10 10 11 12 10 6 5 6 6 6 5 4 4 4 4 4 4 4 4 4 3 3 3 3 3 3 3 3 3 3 3 3 3 3 3 3 4 4 5 5 5 6 6 6 5 5 5 5 nan
nan 7 7 7 7 7 7 7 7 8 7 6 6 7 8 8 8 9 8 8 9 9 9 9 9 8 7 6 6 8 8 8 7 8 8 8 8 8 8 7 7 7 8 8 8 7 7 7 7 7 7 7 7 8 9 11 11 11 11 9 6 6 6 6 6 6 5 5 5 4 4 4 4 4 3 3 3 3 3 3 3 3 3 3 3 3 3 3 3 3 4 4 4 5 5 5 6 6 6 6 6 5 nan
nan 7 7 7 8 8 8 7 7 8 7 6 7 8 9 7 8 9 9 8 9 10 10 10 9 8 6 6 7 8 8 7 7 8 8 8 8 8 8 7 7 7 8 8 7 7 7 7 7 6 6 7 6 7 8 10 10 9 11 12 10 8 7 7 7 7 6 6 5 5 5 4 4 4 4 3 3 3 3 2 2 3 2 2 2 3 3 3 3 3 3 3 4 4 5 5 5 6 6 6 6 5 nan
nan 7 7 7 8 8 8 7 7 8 7 7 8 10 9 7 7 8 8 8 8 8 9 9 8 8 6 7 8 8 7 7 7 8 8 8 8 9 8 7 7 7 8 8 7 7 8 8 7 7 6 7 6 6 6 9 10 10 12 14 11 10 8 7 7 7 7 7 7 6 5 5 4 4 4 4 3 3 3 3 2 2 2 2 2 3 3 3 3 3 3 3 3 4 4 5 5 5 5 5 5 5 nan
nan 7 7 7 8 8 7 7 8 9 7 7 9 10 8 6 6 6 7 8 8 8 8 8 8 8 7 8 8 8 7 7 7 7 8 9 9 10 9 8 8 8 8 7 8 8 9 8 8 7 7 7 7 7 7 8 11 11 12 11 10 10 10 9 8 8 8 8 8 8 7 5 5 5 4 4 4 3 3 3 3 2 2 2 2 2 3 3 3 3 3 3 3 4 4 4 5 5 5 5 5 5 nan
nan 7 8 8 8 8 7 7 9 9 7 7 8 9 7 5 6 6 7 8 8 7 7 8 9 8 7 7 8 8 7 6 7 7 7 8 8 10 10 9 9 9 8 7 8 8 9 9 8 8 8 8 8 8 7 8 10 10 10 9 9 9 8 9 11 11 10 8 8 9 8 6 6 5 4 4 4 4 3 3 3 2 2 2 2 2 3 3 3 3 3 3 3 3 4 4 4 5 5 5 5 5 nan
nan 8 8 9 9 8 7 8 9 9 7 7 8 8 7 6 6 7 8 8 7 6 7 8 8 7 7 7 8 9 8 6 7 7 7 7 7 8 8 9 9 9 8 8 8 8 8 8 8 8 8 8 8 7 8 8 9 9 9 9 8 7 7 8 10 12 14 12 10 9 8 7 6 5 5 5 4 4 4 4 3 3 2 2 2 2 3 3 3 3 4 3 3 3 4 4 4 4 5 5 5 5 nan
nan 8 8 9 8 7 7 9 10 8 6 7 7 7 7 7 7 7 8 8 7 6 6 7 7 7 7 7 8 10 8 7 7 7 7 7 7 7 8 8 8 8 8 8 8 8 7 7 7 7 8 8 8 8 8 8 8 7 8 9 8 8 8 8 9 9 13 16 15 12 9 8 7 6 5 5 5 5 5 4 4 4 3 3 3 3 3 3 3 4 4 4 3 3 4 4 4 4 5 5 5 5 nan
nan 8 9 9 8 7 9 11 10 7 5 7 7 7 7 8 7 6 7 8 7 7 7 7 7 7 7 7 7 8 8 8 8 7 7 7 7 7 8 9 8 8 8 8 8 8 8 7 7 7 8 8 9 9 8 8 7 7 7 9 9 9 9 8 8 7 9 13 16 18 14 9 7 7 6 6 5 5 5 5 5 5 5 4 4 3 3 4 4 4 4 4 3 3 3 4 4 4 4 4 4 4 nan
nan 8 9 9 9 9 11 10 7 5 6 7 7 7 7 8 8 7 7 7 7 8 8 7 7 8 8 7 6 6 7 8 8 7 7 7 7 7 8 9 9 9 8 8 7 7 7 8 8 8 8 9 9 10 9 8 8 6 6 7 9 9 10 10 9 7 8 10 13 18 20 14 9 7 6 6 6 6 6 6 6 6 5 4 4 4 4 4 4 4 4 3 3 3 3 3 4 4 4 4 4 4 nan
nan 8 8 9 10 10 11 8 6 5 7 7 7 7 7 7 8 8 7 6 7 9 8 7 8 9 9 8 7 7 7 7 8 7 7 6 6 6 7 9 9 9 9 8 6 7 8 8 7 7 8 9 10 10 10 9 8 7 7 7 8 9 11 10 9 8 9 11 11 13 20 21 13 8 7 6 6 6 6 7 6 6 5 4 4 4 4 4 4 4 4 4 3 3 3 4 4 4 4 4 4 4 nan
nan 8 8 9 10 11 10 8 5 5 7 8 8 7 7 7 8 8 7 7 8 8 8 7 7 8 10 11 10 8 7 7 7 7 7 6 6 6 7 8 8 9 9 8 7 7 7 8 8 7 7 7 8 9 9 9 8 8 8 8 8 9 9 10 8 9 10 12 12 12 16 23 21 14 9 8 7 7 7 7 7 6 5 4 4 4 4 5 5 5 4 4 3 3 3 3 4 4 4 4 4 4 nan
nan 8 8 9 11 12 10 7 5 5 7 8 8 8 7 7 8 8 8 8 8 8 7 7 7 8 9 11 11 10 8 9 8 9 8 7 7 7 7 7 8 8 9 9 8 8 7 8 8 8 7 7 7 7 7 7 7 8 9 9 9 10 10 9 9 9 8 10 11 13 14 17 21 21 16 12 11 10 9 8 7 6 5 4 4 4 5 5 5 5 4 4 3 3 3 3 4 4 4 4 4 4 nan
nan 7 7 9 11 12 9 6 5 5 7 8 9 8 7 7 8 7 7 8 9 9 8 7 7 7 7 8 9 9 9 10 11 11 11 10 9 9 8 8 8 8 9 9 9 9 8 8 8 8 8 7 7 7 7 6 6 7 8 9 10 11 10 9 9 8 6 6 8 12 14 13 14 17 19 16 15 16 15 12 8 6 5 4 5 5 6 6 6 6 5 4 3 3 3 4 4 4 4 4 4 4 nan
nan 8 7 9 11 12 9 6 5 6 7 8 9 8 7 7 7 7 7 7 9 10 9 8 7 6 6 7 7 8 8 9 10 11 12 11 11 10 8 8 8 8 8 8 9 9 9 9 8 8 8 7 7 7 7 7 7 7 8 9 10 11 11 9 8 7 5 5 6 9 12 12 10 10 12 13 13 15 18 16 11 8 6 5 5 6 6 6 6 5 5 4 3 3 4 4 4 4 4 4 4 5 nan
nan 8 8 9 11 11 9 6 5 6 7 8 8 8 7 7 7 7 7 7 7 9 9 9 8 6 6 6 6 7 8 8 9 9 10 10 10 10 8 7 7 8 7 7 8 8 8 9 8 8 8 7 7 7 7 8 8 8 8 9 10 12 11 9 7 6 5 5 6 7 8 10 9 7 7 9 9 10 14 18 17 13 9 7 7 6 6 6 6 5 5 4 4 4 5 5 5 4 4 4 4 5 nan
nan 7 8 10 11 10 8 7 6 6 7 8 8 8 7 8 8 8 7 7 7 7 9 10 9 7 7 6 6 6 7 8 8 9 9 8 8 9 9 8 7 7 7 7 7 7 6 7 7 7 7 8 8 8 8 9 9 9 9 9 9 11 11 10 7 5 5 6 7 6 6 7 7 6 7 8 8 9 11 16 21 21 17 11 9 7 6 6 5 5 4 4 5 5 6 5 5 4 3 4 5 6 nan
nan 7 8 10 11 9 8 8 7 6 7 7 8 8 9 10 9 9 7 6 6 6 8 10 10 9 7 6 6 6 6 7 8 8 8 7 7 8 9 11 10 10 9 9 9 9 7 6 6 6 7 8 7 8 9 9 9 9 9 9 8 9 11 11 8 6 7 8 7 7 6 5 5 5 6 7 9 10 11 13 17 22 24 19 14 11 9 7 6 5 5 5 6 6 6 5 4 3 3 5 6 6 nan
nan 7 8 10 11 9 8 8 7 6 6 7 7 8 9 11 11 10 7 5 4 5 7 8 10 10 10 8 8 8 7 7 7 6 6 8 7 7 8 11 12 13 13 12 12 11 11 7 7 7 7 7 8 8 9 10 10 9 9 9 7 7 9 10 9 8 10 9 7 7 7 6 5 5 6 6 8 9 11 12 13 16 19 21 21 18 16 14 11 8 6 6 7 7 6 4 3 3 4 6 6 6 nan
nan 8 9 9 10 9 9 8 6 6 7 8 7 7 10 11 10 8 7 6 3 4 6 6 8 10 11 10 9 11 11 9 7 4 6 8 8 8 8 8 9 11 13 14 15 15 14 10 9 9 7 7 8 9 9 10 10 8 8 8 7 7 7 8 10 11 12 11 9 8 8 7 5 5 6 6 6 7 9 10 12 12 12 14 16 17 17 18 18 13 8 8 8 6 5 3 2 3 5 6 6 5 nan
nan 8 8 9 9 9 9 8 7 7 7 6 7 7 9 9 8 8 8 8 6 5 5 6 6 7 8 9 9 12 14 12 8 5 7 8 8 8 8 7 7 8 9 11 14 16 16 13 11 10 9 7 7 8 10 10 9 8 7 7 7 7 7 7 9 11 12 11 10 10 9 7 6 6 7 6 5 5 6 8 9 10 10 11 11 12 13 13 14 13 10 9 7 5 3 2 3 4 6 7 5 4 nan
nan 8 8 8 8 8 9 9 8 7 7 7 7 7 8 8 8 8 8 8 8 7 7 7 7 7 7 7 7 9 12 13 9 6 5 7 7 6 8 10 8 8 7 8 9 11 13 13 12 11 11 10 9 9 10 9 9 8 8 7 7 7 8 8 9 11 11 10 10 10 9 8 9 9 8 6 5 5 5 6 6 8 9 10 11 11 14 17 15 11 11 10 7 4 2 3 4 6 7 6 4 3 nan
nan 8 7 6 7 8 9 10 8 7 7 7 8 8 9 8 7 7 8 8 9 9 9 7 6 7 8 7 6 6 9 12 9 6 5 6 6 6 8 10 9 9 8 8 7 8 11 14 13 12 12 12 11 11 11 9 7 7 8 8 7 7 8 8 9 10 10 10 10 11 9 8 10 11 9 7 6 6 6 6 6 6 7 8 8 9 13 18 19 15 14 12 8 2 2 5 6 7 7 4 3 2 nan
nan 7 6 6 7 8 10 10 8 7 6 6 8 9 10 9 8 8 8 8 9 9 9 7 6 5 7 8 8 7 9 10 8 6 6 4 5 5 7 7 7 7 9 10 9 8 8 11 13 14 13 13 11 10 10 9 7 7 7 7 6 7 7 8 8 9 7 8 10 13 11 10 11 11 8 7 7 7 7 7 7 7 7 8 8 9 11 14 16 17 17 15 10 5 3 5 7 7 5 3 2 2 nan
nan 7 6 8 8 8 9 9 8 8 7 6 7 8 8 9 10 9 9 9 8 7 7 7 6 4 4 9 11 10 10 9 8 7 7 5 4 4 6 5 6 6 9 10 10 8 7 8 10 11 13 14 12 9 9 11 9 8 8 8 7 7 6 7 8 8 7 7 8 11 12 13 13 12 9 8 8 8 7 7 6 7 7 8 9 9 10 11 12 15 14 14 15 12 7 6 6 5 3 2 2 3 nan
nan 8 8 8 9 7 7 8 8 7 7 7 7 7 8 9 10 10 10 8 7 6 6 8 8 6 3 6 9 11 11 11 10 9 8 7 6 5 4 4 5 6 7 8 9 9 8 10 10 8 10 12 13 9 9 11 10 8 8 8 8 8 7 7 7 8 7 7 7 8 10 12 13 12 11 10 10 10 8 7 7 7 7 8 8 9 10 10 9 9 10 10 12 16 12 5 4 3 3 3 4 4 nan
nan 9 9 8 8 7 6 6 7 7 8 8 7 7 7 8 9 10 10 9 8 9 7 6 7 7 6 5 6 8 9 10 10 10 9 9 9 8 6 4 4 4 4 7 9 9 9 8 10 8 8 9 11 11 13 13 12 10 10 10 9 8 8 8 7 7 8 7 7 6 8 9 10 10 12 12 11 12 11 9 8 7 7 8 8 8 9 9 8 6 7 8 7 8 7 3 4 4 4 5 4 3 nan
nan 8 8 8 9 8 6 6 7 7 8 8 7 7 7 8 8 9 10 10 10 10 7 5 6 8 9 6 4 5 7 8 9 9 8 9 10 11 9 7 5 3 3 5 8 8 8 6 7 8 8 7 8 8 12 15 14 13 12 13 12 10 9 9 8 8 8 7 6 7 6 7 8 8 9 9 10 12 13 11 9 9 7 7 8 9 10 10 9 8 8 6 1 0 2 4 6 6 6 5 3 2 nan
nan 6 8 9 8 7 7 6 6 7 8 8 7 7 8 7 7 7 9 11 12 11 9 7 6 6 9 9 6 6 7 7 8 8 8 8 9 11 11 9 8 7 6 5 6 6 7 6 6 7 7 7 6 6 6 9 11 11 12 14 14 13 11 10 11 10 10 9 7 7 6 6 7 7 7 7 8 9 12 12 11 9 8 7 8 9 9 9 10 11 12 10 7 4 6 8 8 8 6 4 2 2 nan
nan nan nan nan nan nan nan nan nan nan nan nan nan nan nan nan nan nan nan nan nan nan nan nan nan nan nan nan nan nan nan nan nan nan nan nan nan nan nan nan nan nan nan nan nan nan nan nan nan nan nan nan nan nan nan nan nan nan nan nan nan nan nan nan nan nan nan nan nan nan nan nan nan nan nan nan nan nan nan nan nan nan nan nan nan nan nan nan nan nan nan nan nan nan nan nan nan nan nan nan nan nan nan
CAPE
67 57 55 56 59 59 70 107 105 105 73 68 102 102 146 194 194 233 249 248 248 212 142 87 96 96 82 53 22 22 5 1 nan nan nan nan nan nan nan nan nan nan nan 0 9 9 17 10 nan nan nan nan nan nan nan nan nan nan nan nan nan nan nan 42 41 41 41 34 20 20 12 5 2 2 3 6 6 10 5 4 4 2 0 nan 0 0 3 8 9 9 16 10 11 11 8 5 5 6 7 8 8 8 9
52 47 51 46 49 49 50 91 101 101 77 86 104 104 141 207 207 239 235 201 201 139 109 81 94 94 84 52 20 20 2 nan nan nan nan nan nan nan nan nan nan nan nan 1 9 9 15 4 nan nan nan nan nan nan nan nan nan nan nan nan nan nan 1 35 38 38 38 29 15 15 8 3 1 1 2 7 7 8 3 2 2 0 nan nan nan nan 6 13 14 14 13 10 8 8 5 3 3 6 8 8 8 8 10
54 42 51 49 37 37 38 86 115 115 88 100 101 101 129 194 194 227 219 174 174 115 86 93 95 95 82 43 10 10 0 nan nan nan nan nan nan nan nan nan nan nan nan 1 6 6 13 13 nan nan nan nan nan nan nan nan nan nan nan nan nan nan 1 35 36 36 33 22 9 9 4 1 0 0 1 3 3 4 2 0 0 nan nan nan 0 0 8 15 14 14 11 8 7 7 3 2 2 5 8 8 8 8 10
61 46 42 49 35 35 29 81 128 128 115 125 95 95 117 172 172 210 202 162 162 111 89 108 104 104 66 22 1 1 nan nan nan nan nan nan nan nan nan nan nan nan nan nan 2 2 0 nan nan nan nan nan nan nan nan nan nan nan nan nan nan nan 14 29 31 31 26 18 7 7 2 0 0 0 0 1 1 2 1 nan nan nan nan nan 3 3 11 15 12 12 8 6 5 5 1 1 1 6 7 7 7 8 9
62 56 52 49 36 36 28 74 140 140 143 134 88 88 99 140 140 164 178 148 148 120 103 108 103 103 54 8 nan nan nan nan nan nan nan nan nan nan nan nan nan nan nan nan 0 0 nan nan nan nan nan nan nan nan nan 2 2 nan nan nan nan nan 26 29 30 30 21 10 2 2 0 nan nan nan nan 0 0 0 0 nan nan nan nan 0 7 7 13 12 8 8 4 3 2 2 1 2 2 6 7 7 7 7 8
56 56 56 51 44 44 44 83 147 147 158 137 82 82 84 107 107 128 138 137 137 125 117 117 101 101 36 3 nan nan nan nan nan nan nan nan nan nan nan nan nan nan nan nan nan nan nan nan nan nan nan nan nan nan nan 4 4 nan nan nan nan 3 29 28 29 29 16 4 nan nan nan nan nan nan nan nan nan nan 0 nan nan nan nan 3 9 9 12 10 5 5 1 0 0 0 1 3 3 6 7 6 6 6 7
39 45 52 48 52 52 81 120 163 163 170 122 85 85 78 81 81 111 128 126 126 143 132 120 89 89 30 1 nan nan nan nan nan nan nan nan nan nan nan nan nan nan nan nan nan nan nan nan nan nan nan nan nan nan nan 5 5 nan nan nan nan 13 27 28 27 27 12 2 nan nan nan nan nan nan nan nan nan nan nan nan nan nan nan 5 10 10 10 7 2 2 nan nan nan nan 0 3 3 6 6 5 5 6 7
28 36 43 47 61 61 78 121 170 170 163 110 80 80 71 66 66 89 115 122 122 136 133 121 90 90 27 2 nan nan nan nan nan nan nan nan nan nan nan nan nan nan nan nan nan nan nan nan nan nan nan nan nan nan nan 3 3 nan nan nan nan 15 25 24 18 18 5 nan nan nan nan nan nan nan nan nan nan nan nan nan nan nan nan 6 11 11 9 4 1 1 nan nan nan nan nan 1 1 4 4 4 4 4 6
18 24 40 51 53 53 60 99 156 156 149 112 83 83 61 49 49 69 90 96 96 117 128 126 87 87 36 6 2 2 nan nan nan nan nan nan nan nan nan nan nan nan nan nan nan nan nan nan nan nan nan nan nan nan nan nan nan nan nan nan nan 3 19 15 9 9 nan nan nan nan nan nan nan nan nan nan nan nan nan nan nan nan 1 7 8 8 6 2 1 1 nan nan nan nan nan 0 0 2 2 3 3 3 5
14 21 33 49 45 45 36 73 136 136 147 104 80 80 53 34 34 47 68 80 80 92 104 115 93 93 47 11 6 6 1 nan nan nan nan nan nan nan nan nan nan nan nan nan nan nan nan nan nan nan nan nan nan nan nan nan nan nan nan 8 8 nan 10 8 1 1 nan nan nan nan nan nan 0 0 0 0 0 nan nan nan nan nan 0 7 5 5 3 2 0 0 nan nan nan nan nan 0 0 0 1 2 2 3 4
10 17 25 35 35 35 33 58 111 111 137 95 88 88 55 31 31 27 36 57 57 72 78 97 88 88 62 17 9 9 3 nan nan nan nan nan nan nan nan nan nan nan nan nan nan nan nan nan nan nan nan nan nan nan nan nan nan nan nan 6 6 4 3 2 nan nan nan nan nan nan nan nan 1 1 1 0 0 nan nan nan nan nan nan 5 4 4 2 1 0 0 nan nan nan nan nan 0 0 0 1 1 1 2 3
13 18 20 27 36 36 30 49 101 101 123 114 93 93 66 35 35 18 18 38 38 50 54 67 75 75 68 25 10 10 4 0 nan nan nan nan nan nan nan nan nan nan nan nan nan nan nan nan nan nan nan nan nan nan nan nan nan nan nan 4 4 4 1 0 nan nan nan nan nan nan nan nan 1 1 1 1 1 0 nan nan nan nan nan 1 4 4 1 0 0 0 nan nan nan nan nan 0 0 0 0 1 1 1 2
17 24 25 35 43 43 37 44 88 88 113 112 104 104 79 43 43 16 11 24 24 40 43 44 50 50 65 36 11 11 5 0 nan nan nan nan nan nan nan nan nan nan nan nan nan nan nan nan nan nan nan nan nan nan nan nan nan nan nan 3 3 1 1 nan nan nan nan nan nan nan nan nan 0 0 2 1 1 0 nan nan nan nan nan nan 2 2 1 0 0 0 nan nan nan nan 0 0 0 0 0 1 1 1 2
19 18 43 57 65 65 56 44 58 58 78 95 91 91 72 53 53 29 13 15 15 27 34 36 36 36 52 33 12 12 4 1 nan nan nan nan nan nan nan nan nan nan nan nan nan nan nan nan nan nan nan nan nan nan nan nan nan nan 5 0 0 nan 0 0 nan nan nan nan nan nan nan nan nan nan 0 1 1 1 nan nan nan nan nan nan nan nan 0 0 0 0 nan nan nan nan nan nan nan 0 0 1 1 1 1
11 22 58 57 75 75 78 47 39 39 45 65 78 78 68 57 57 38 16 12 12 17 28 33 33 33 41 35 14 14 6 1 nan nan nan nan nan nan nan nan nan nan nan nan nan nan nan nan nan nan nan nan nan nan nan nan nan nan 13 nan nan nan nan 0 0 0 nan nan nan nan nan nan nan nan nan 0 0 1 0 nan nan nan nan nan nan nan nan nan 0 0 nan nan nan nan nan nan nan nan 0 1 1 2 2
4 21 47 61 81 81 75 47 33 33 29 41 58 58 65 61 61 42 20 13 13 14 22 30 32 32 35 38 15 15 6 1 nan nan nan nan nan nan nan nan nan nan nan nan nan nan nan nan nan nan nan nan nan nan nan nan nan nan 13 nan nan nan 0 1 0 0 nan nan nan nan nan nan nan nan nan nan nan 0 0 nan nan nan nan nan nan nan nan nan nan nan nan nan nan nan nan nan nan 0 0 2 2 3 3
8 14 28 39 63 63 55 42 36 36 29 31 41 41 48 45 45 35 26 15 15 12 19 25 30 30 31 36 16 16 1 nan nan nan nan nan nan nan nan nan nan nan nan nan nan nan nan nan nan nan nan nan nan nan nan nan nan 8 11 0 0 0 1 1 1 1 1 nan nan nan nan nan nan nan nan nan nan nan nan nan nan nan nan nan nan nan nan nan nan nan nan nan nan nan 0 0 0 0 2 4 4 3 3
3 3 7 28 42 42 30 35 37 37 38 33 35 35 35 26 26 29 32 19 19 13 15 20 29 29 40 36 6 6 nan nan nan nan nan nan nan nan nan nan nan nan nan nan nan nan nan nan nan nan nan nan nan nan nan nan nan 20 5 1 1 2 2 3 3 3 1 0 nan nan nan nan nan nan nan nan nan nan nan nan nan nan nan nan nan nan nan nan nan nan nan nan nan nan nan 0 0 1 3 4 4 4 3
0 1 1 16 28 28 25 37 40 40 42 32 29 29 24 17 17 20 25 17 17 13 12 17 30 30 47 31 nan nan nan nan nan nan nan nan nan nan nan nan nan nan nan nan nan nan nan nan nan nan nan nan nan nan 1 nan nan 11 5 2 2 3 3 4 4 4 3 1 nan nan nan nan nan nan nan nan nan nan nan nan nan nan nan nan nan nan nan nan nan nan nan nan nan nan nan 0 0 1 3 4 4 3 2
nan nan nan 4 20 20 27 32 28 28 26 16 8 8 7 7 7 8 14 9 9 5 8 12 28 28 24 nan nan nan nan nan nan nan nan nan nan nan nan nan nan nan nan nan nan nan nan nan nan nan nan nan 0 0 nan nan nan 13 4 1 1 2 2 2 5 5 4 2 nan nan nan nan nan nan nan nan nan nan nan nan nan nan nan nan nan nan nan nan nan nan nan nan nan nan nan nan nan 0 1 1 1 0 0
nan nan nan nan 1 1 nan 0 4 4 6 7 nan nan nan nan nan nan 2 nan nan nan 8 7 nan nan nan nan nan nan nan nan nan nan nan nan nan nan nan nan nan nan nan nan nan nan nan nan nan nan nan nan 0 0 nan 6 6 10 4 1 1 0 1 1 3 3 5 3 0 0 nan nan nan nan nan nan nan nan nan nan nan nan nan nan nan nan nan nan nan nan nan nan nan nan nan nan nan nan nan 0 0 0 nan
nan nan nan nan nan nan nan nan nan nan nan 1 nan nan nan nan nan nan nan nan nan nan nan nan nan nan nan nan nan nan nan nan nan nan nan nan nan nan nan nan nan nan nan nan nan nan nan nan nan nan nan nan 0 0 nan 7 7 7 2 1 1 nan nan 0 3 3 6 3 0 0 nan nan nan nan nan nan nan nan nan nan nan nan nan nan nan nan nan nan nan nan nan nan nan nan nan nan nan nan nan nan nan nan nan
nan nan nan nan nan nan nan nan nan nan nan nan nan nan nan nan nan nan nan nan nan nan nan nan nan nan nan nan nan nan nan nan nan nan nan nan nan nan nan nan nan nan nan nan nan nan nan nan nan nan nan nan nan nan nan 4 4 2 nan nan nan nan nan 0 3 3 5 3 1 1 nan nan nan nan nan nan nan nan nan nan nan nan nan nan nan nan nan nan nan nan nan nan nan nan nan nan nan nan nan nan nan nan nan
nan nan nan nan nan nan nan nan nan nan nan nan nan nan nan nan nan nan nan nan nan nan nan nan nan nan nan nan nan nan nan nan nan nan nan nan nan nan nan nan nan nan nan nan nan nan nan nan nan nan nan nan nan nan nan 4 4 1 nan nan nan nan 0 2 4 4 6 5 3 3 1 nan nan nan nan nan nan nan nan nan nan nan nan nan nan nan nan nan nan nan nan nan nan nan nan nan nan nan nan nan nan nan nan
nan nan nan nan nan nan nan nan nan nan nan nan nan nan nan nan nan nan nan nan nan nan nan nan nan nan nan nan nan nan nan nan nan nan nan nan nan nan nan nan nan nan nan nan nan nan nan nan nan nan nan nan nan nan nan 3 3 1 nan nan nan nan nan 3 6 6 6 6 5 5 2 nan nan nan nan nan nan nan nan nan nan nan nan nan nan nan nan nan nan nan nan nan nan nan nan nan nan nan nan 0 0 nan nan
nan nan nan nan nan nan nan nan nan nan nan nan nan nan nan nan nan nan nan nan nan nan nan nan nan nan nan nan nan nan nan nan nan nan nan nan nan nan nan nan nan nan nan nan nan nan nan nan nan nan nan nan nan nan nan 3 3 1 nan nan nan nan nan 1 2 2 4 6 6 6 1 nan nan nan nan nan nan nan nan nan nan nan nan nan nan nan nan nan nan nan nan nan nan nan nan nan nan nan 0 0 0 0 nan
nan nan nan nan nan nan nan nan nan nan nan nan nan nan nan nan nan nan nan nan nan nan nan nan nan nan nan nan nan nan nan nan nan nan nan nan nan nan nan nan nan nan nan nan nan nan nan nan nan nan nan nan nan nan nan nan nan 0 0 nan nan nan nan nan nan nan 1 5 4 4 1 nan nan nan nan nan nan nan nan nan nan nan nan nan nan nan nan nan nan nan nan nan nan nan nan nan nan 0 0 0 0 nan nan
nan nan nan nan nan nan nan nan nan nan nan nan nan nan nan nan nan nan nan nan nan nan nan nan nan nan nan nan nan nan nan nan nan nan nan nan nan nan nan nan nan nan nan nan nan nan nan nan nan nan nan nan nan nan nan nan nan nan 1 1 1 nan nan nan nan nan nan 0 2 2 2 1 nan nan nan nan nan nan nan nan nan nan nan nan nan nan nan nan nan nan nan nan nan nan nan nan nan nan 0 0 0 nan nan
nan nan nan nan nan nan nan nan nan nan nan nan nan nan nan nan nan nan nan nan nan nan nan nan nan nan nan nan nan nan nan nan nan nan nan nan nan nan nan nan nan nan nan nan nan nan nan nan nan nan nan nan nan nan nan nan nan nan 1 2 2 nan nan nan nan nan nan nan nan nan 1 1 nan nan nan nan nan nan nan nan nan nan nan nan nan nan nan nan nan nan nan nan nan nan nan nan nan nan nan nan nan nan nan
nan nan nan nan nan nan nan nan nan nan nan nan nan nan nan nan nan nan nan nan nan nan nan nan nan nan nan nan nan nan nan nan nan nan nan nan nan nan nan nan nan nan nan nan nan nan nan nan nan nan nan nan nan nan nan nan nan nan 0 1 1 nan nan nan nan nan nan nan nan nan nan nan nan nan nan nan nan nan nan nan nan nan nan nan nan nan nan nan nan nan nan nan nan nan nan nan nan nan nan nan nan nan nan
nan nan nan nan nan nan nan nan nan nan nan nan nan nan nan nan nan nan nan nan nan nan nan nan nan nan nan nan nan nan nan nan nan nan nan nan nan nan nan nan nan nan nan nan nan nan nan nan nan nan nan nan nan nan nan nan nan nan 0 0 0 nan nan nan nan nan nan nan nan nan nan nan nan nan nan nan nan nan nan nan nan nan nan nan nan nan nan nan nan nan nan nan nan nan nan nan nan nan nan nan nan nan nan
nan nan nan nan nan nan nan nan nan nan nan nan nan nan nan nan nan nan nan nan nan nan nan nan nan nan nan nan nan nan nan nan nan nan nan nan nan nan nan nan nan nan nan nan nan nan nan nan nan nan nan nan nan nan nan nan nan nan nan nan nan nan nan nan nan nan nan nan nan nan nan nan nan nan nan nan nan nan nan nan nan nan nan nan nan nan nan nan nan nan nan nan nan nan nan nan nan nan nan nan nan nan nan
nan nan nan nan nan nan nan nan nan nan nan nan nan nan nan nan nan nan nan nan nan nan nan nan nan nan nan nan nan nan nan nan nan nan nan nan nan nan nan nan nan nan nan nan nan nan nan nan nan nan nan nan nan nan nan nan nan nan nan 0 0 nan nan nan nan nan nan nan nan nan nan nan nan nan nan nan nan nan nan nan nan nan nan nan nan nan nan nan nan nan nan 0 0 0 nan nan nan nan nan nan nan nan nan
nan nan nan nan nan nan nan nan nan nan nan nan nan nan nan nan nan nan nan nan nan nan nan nan nan nan nan nan nan nan nan nan nan nan nan nan nan nan nan nan nan nan nan nan nan nan nan nan nan nan nan nan nan nan nan nan nan nan nan nan nan nan nan nan nan nan nan nan nan nan nan nan nan nan nan nan nan nan nan nan nan nan nan nan nan nan nan nan nan nan nan 0 0 0 0 0 0 nan nan nan nan nan nan
nan nan nan nan nan nan nan nan nan nan nan nan nan nan nan nan nan nan nan nan nan nan nan nan nan nan nan nan nan nan nan nan nan nan nan nan nan nan nan nan nan nan nan nan nan nan nan nan nan nan nan nan nan nan nan nan nan nan nan nan nan nan nan nan nan nan nan nan nan nan nan nan nan nan nan nan nan nan nan nan nan nan nan nan nan nan nan nan nan nan nan 0 1 1 1 1 1 0 nan nan nan nan nan
nan nan nan nan nan nan nan nan nan nan nan nan nan nan nan nan nan nan nan nan nan nan nan nan nan nan nan nan nan nan nan nan nan nan nan nan nan nan nan nan nan nan nan nan nan nan nan nan nan nan nan nan nan nan nan nan nan nan nan nan nan nan nan nan nan nan nan nan nan nan nan nan nan nan nan nan nan nan nan nan nan nan nan nan nan nan nan nan nan nan nan 0 1 1 2 2 2 1 0 nan nan nan nan
nan nan nan nan nan nan nan nan nan nan nan nan nan nan nan nan nan nan nan nan nan nan nan nan nan nan nan nan nan nan nan nan nan nan nan nan nan nan nan nan nan nan nan nan nan nan nan nan nan nan nan nan nan nan nan nan nan nan nan nan nan nan nan nan nan nan nan nan nan nan nan nan nan nan nan nan nan nan nan nan nan nan nan nan nan nan nan nan nan nan nan 0 1 1 2 2 2 2 0 nan nan nan nan
nan nan nan nan nan nan nan nan nan nan nan nan nan nan nan nan nan nan nan nan nan nan nan nan nan nan nan nan nan nan nan nan nan nan nan nan nan nan nan nan nan nan nan nan nan nan nan nan nan nan nan nan nan nan nan nan nan nan nan nan nan nan nan nan nan nan nan nan nan nan nan nan nan nan nan nan nan nan nan nan nan nan nan nan nan nan nan nan nan nan nan nan 0 0 1 2 2 2 1 0 0 nan nan
nan nan nan nan nan nan nan nan nan nan nan nan nan nan nan nan nan nan nan nan nan nan nan nan nan nan nan nan nan nan nan nan nan nan nan nan nan nan nan nan nan nan nan nan nan nan nan nan nan nan nan nan nan nan nan nan nan nan nan nan nan nan nan nan nan nan nan nan nan nan nan nan nan nan nan nan nan nan nan nan nan nan nan nan nan nan nan nan nan nan nan nan 0 0 1 2 2 2 1 1 1 0 nan
nan nan nan nan nan nan nan nan nan nan nan nan nan nan nan nan nan nan nan nan nan nan nan nan nan nan nan nan nan nan nan nan nan nan nan nan nan nan nan nan nan nan nan nan nan nan nan nan nan nan nan nan nan nan nan nan nan nan nan nan nan nan nan nan nan nan nan nan nan nan nan nan nan nan nan nan nan nan nan nan nan nan nan nan nan nan nan nan nan nan nan nan 0 0 1 2 2 2 2 1 1 0 nan
nan nan nan nan nan nan nan nan nan nan nan nan nan nan nan nan nan nan nan nan nan nan nan nan nan nan nan nan nan nan nan nan nan nan nan nan nan nan nan nan nan nan nan nan nan nan nan nan nan nan nan nan nan nan nan nan nan nan nan nan nan nan nan nan nan nan nan nan nan nan nan nan nan nan nan nan nan nan nan nan nan nan nan nan nan nan nan nan nan nan nan nan nan nan 0 2 2 2 2 2 2 0 nan
nan nan nan nan nan nan nan nan nan nan nan nan nan nan nan nan nan nan nan nan nan nan nan nan nan nan nan nan nan nan nan nan nan nan nan nan nan nan nan nan nan nan nan nan nan nan nan nan nan nan nan nan nan nan nan nan nan nan nan nan nan nan nan nan nan nan nan nan nan nan nan nan nan nan nan nan nan nan nan nan nan nan nan nan nan nan nan nan nan nan nan nan nan nan 0 1 1 2 2 2 2 1 0
nan nan nan nan nan nan nan nan nan nan nan nan nan nan nan nan nan nan nan nan nan nan nan nan nan nan nan nan nan nan nan nan nan nan nan nan nan nan nan nan nan nan nan nan nan nan nan nan nan nan nan nan nan nan nan nan nan nan nan nan nan nan nan nan nan nan nan nan nan nan nan nan nan nan nan nan nan nan nan nan nan nan nan nan nan nan nan nan nan nan nan nan nan nan nan 0 0 1 2 3 3 2 1
nan nan nan nan nan nan nan nan nan nan nan nan nan nan nan nan nan nan nan nan nan nan nan nan nan nan nan nan nan nan nan nan nan nan nan nan nan nan nan nan nan nan nan nan nan nan nan nan nan nan nan nan nan nan nan nan nan nan nan nan nan nan nan nan nan nan nan nan nan nan nan nan nan nan nan nan nan nan nan nan nan nan nan nan nan nan nan nan nan nan nan nan nan nan nan nan nan 0 2 3 3 3 1
nan nan nan nan nan nan nan nan nan nan nan nan nan nan nan nan nan nan nan nan nan nan nan nan nan nan nan nan nan nan nan nan nan nan nan nan nan nan nan nan nan nan nan nan nan nan nan nan nan nan nan nan nan nan nan nan nan nan nan nan nan nan nan nan nan nan nan nan nan nan nan nan nan nan nan nan nan nan nan nan nan nan nan nan nan nan nan nan nan nan nan nan nan nan nan nan nan nan 1 3 3 3 1
nan nan nan nan nan nan nan nan nan nan nan nan nan nan nan nan nan nan nan nan nan nan nan nan nan nan nan nan nan nan nan nan nan nan nan nan nan nan nan nan nan nan nan nan nan nan nan nan nan nan nan nan nan nan nan nan nan nan nan nan nan nan nan nan nan nan nan nan nan nan nan nan nan nan nan nan nan nan nan nan nan nan nan nan nan nan nan nan nan nan nan nan nan nan nan nan nan nan 0 1 1 2 1
nan nan nan nan nan nan nan nan nan nan nan nan nan nan nan nan nan nan nan nan nan nan nan nan nan nan nan nan nan nan nan nan nan nan nan nan nan nan nan nan nan nan nan nan nan nan nan nan nan nan nan nan nan nan nan nan nan nan nan nan nan nan nan nan nan nan nan nan nan nan nan nan nan nan nan nan nan nan nan nan nan nan nan nan nan nan nan nan nan nan nan nan nan nan nan nan nan nan nan 0 0 1 1
nan nan nan nan nan nan nan nan nan nan nan nan nan nan nan nan nan nan nan nan nan nan nan nan nan nan nan nan nan nan nan nan nan nan nan nan nan nan nan nan nan nan nan nan nan nan nan nan nan nan nan nan nan nan nan nan nan nan nan nan nan nan nan nan nan nan nan nan nan nan nan nan nan nan nan nan nan nan nan nan nan nan nan nan nan nan nan nan nan nan nan nan nan nan nan nan nan nan nan nan nan 0 0
nan nan nan nan nan nan nan nan nan nan nan nan nan nan nan nan nan nan nan nan nan nan nan nan nan nan nan nan nan nan nan nan nan nan nan nan nan nan nan nan nan nan nan nan nan nan nan nan nan nan nan nan nan nan nan nan nan nan nan nan nan nan nan nan nan nan nan nan nan nan nan nan nan nan nan nan nan nan nan nan nan nan nan nan nan nan nan nan nan nan nan nan nan nan nan nan nan nan nan nan nan nan nan
nan nan nan nan nan nan nan nan nan nan nan nan nan nan nan nan nan nan nan nan nan nan nan nan nan nan nan nan nan nan nan nan nan nan nan nan nan nan nan nan nan nan nan nan nan nan nan nan nan nan nan nan nan nan nan nan nan nan nan nan nan nan nan nan nan nan nan nan nan nan nan nan nan nan nan nan nan nan nan nan nan nan nan nan nan nan nan nan nan nan nan nan nan nan nan nan nan nan nan nan nan nan nan
nan nan nan nan nan nan nan nan nan nan nan nan nan nan nan nan nan nan nan nan nan nan nan nan nan nan nan nan nan nan nan nan nan nan nan nan nan nan nan nan nan nan nan nan nan nan nan nan nan nan nan nan nan nan nan nan nan nan nan nan nan nan nan nan nan nan nan nan nan nan nan nan nan nan nan nan nan nan nan nan nan nan nan nan nan nan nan nan nan nan nan nan nan nan nan nan nan nan nan nan nan nan nan
nan nan nan nan nan nan nan nan nan nan nan nan nan nan nan nan nan nan nan nan nan nan nan nan nan nan nan nan nan nan nan nan nan nan nan nan nan nan nan nan nan nan nan nan nan nan nan nan nan nan nan nan nan nan nan nan nan nan nan nan nan nan nan nan nan nan nan nan nan nan nan nan nan nan nan nan nan nan nan nan nan nan nan nan nan nan nan nan nan nan nan nan nan nan nan nan nan nan nan nan nan nan nan
nan nan nan nan nan nan nan nan nan nan nan nan nan nan nan nan nan nan nan nan nan nan nan nan nan nan nan nan nan nan nan nan nan nan nan nan nan nan nan nan nan nan nan nan nan nan nan nan nan nan nan nan nan nan nan nan nan nan nan nan nan nan nan nan nan nan nan nan nan nan nan nan nan nan nan nan nan nan nan nan nan nan nan nan nan nan nan nan nan nan nan nan nan nan nan nan nan nan nan nan nan nan nan
nan nan nan nan nan nan nan nan nan nan nan nan nan nan nan nan nan nan nan nan nan nan nan nan nan nan nan nan nan nan nan nan nan nan nan nan nan nan nan nan nan nan nan nan nan nan nan nan nan nan nan nan nan nan nan nan nan nan nan nan nan nan nan nan nan nan nan nan nan nan nan nan nan nan nan nan nan nan nan nan nan nan nan nan nan nan nan nan nan nan nan nan nan nan nan nan nan nan nan nan nan nan nan
nan nan nan nan nan nan nan nan nan nan nan nan nan nan nan nan nan nan nan nan nan nan nan nan nan nan nan nan nan nan nan nan nan nan nan nan nan nan nan nan nan nan nan nan nan nan nan nan nan nan nan nan nan nan nan nan nan nan nan nan nan nan nan nan nan nan nan nan nan nan nan nan nan nan nan nan nan nan nan nan nan nan nan nan nan nan nan nan nan nan nan nan nan nan nan nan nan nan nan nan nan nan nan
nan nan nan nan nan nan nan nan nan nan nan nan nan nan nan nan nan nan nan nan nan nan nan nan nan nan nan nan nan nan nan nan nan nan nan nan nan nan nan nan nan nan nan nan nan nan nan nan nan nan nan nan nan nan nan nan nan nan nan nan nan nan nan nan nan nan nan nan nan nan nan nan nan nan nan nan nan nan nan nan nan nan nan nan nan nan nan nan nan nan nan nan nan nan nan nan nan nan nan nan nan nan nan
nan nan nan nan nan nan nan nan nan nan nan nan nan nan nan nan nan nan nan nan nan nan nan nan nan nan nan nan nan nan nan nan nan nan nan nan nan nan nan nan nan nan nan nan nan nan nan nan nan nan nan nan nan nan nan nan nan nan nan nan nan nan nan nan nan nan nan nan nan nan nan nan nan nan nan nan nan nan nan nan nan nan nan nan nan nan nan nan nan nan nan nan nan nan nan nan nan nan nan nan nan nan nan
nan nan nan nan nan nan nan nan nan nan nan nan nan nan nan nan nan nan nan nan nan nan nan nan nan nan nan nan nan nan nan nan nan nan nan nan nan nan nan nan nan nan nan nan nan nan nan nan nan nan nan nan nan nan nan nan nan nan nan nan nan nan nan nan nan nan nan nan nan nan nan nan nan nan nan nan nan nan nan nan nan nan nan nan nan nan nan nan nan nan nan nan nan nan nan nan nan nan nan nan nan nan nan
nan nan nan nan nan nan nan nan nan nan nan nan nan nan nan nan nan nan nan nan nan nan nan nan nan nan nan nan nan nan nan nan nan nan nan nan nan nan nan nan nan nan nan nan nan nan nan nan nan nan nan nan nan nan nan nan nan nan nan nan nan nan nan nan nan nan nan nan nan nan nan nan nan nan nan nan nan nan nan nan nan nan nan nan nan nan nan nan nan nan nan nan nan nan nan nan nan nan nan nan nan nan nan
nan nan nan nan nan nan nan nan nan nan nan nan nan nan nan nan nan nan nan nan nan nan nan nan nan nan nan nan nan nan nan nan nan nan nan nan nan nan nan nan nan nan nan nan nan nan nan nan nan nan nan nan nan nan nan nan nan nan nan nan nan nan nan nan nan nan nan nan nan nan nan nan nan nan nan nan nan nan nan nan nan nan nan nan nan nan nan nan nan nan nan nan nan nan nan nan nan nan nan nan nan nan nan
nan nan nan nan nan nan nan nan nan nan nan nan nan nan nan nan nan nan nan nan nan nan nan nan nan nan nan nan nan nan nan nan nan nan nan nan nan nan nan nan nan nan nan nan nan nan nan nan nan nan nan nan nan nan nan nan nan nan nan nan nan nan nan nan nan nan nan nan nan nan nan nan nan nan nan nan nan nan nan nan nan nan nan nan nan nan nan nan nan nan nan nan nan nan nan nan nan nan nan nan nan nan nan